| time (UTC) | temp C | wind direction | speed KPH | gust KPH | rain 1hr cm | rain 24hr cm | rain mn cm | humidity % | barometer mb |
| 20260509184522 | 18 | 219 | 3.2 | 19.3 | 0.00 | 0.00 | 0.00 | 59 | 1017.7 |
| 20260509183024 | 19 | 171 | 0.0 | 4.8 | 0.00 | 0.00 | 0.00 | 57 | 1017.6 |
| 20260509181521 | 20 | 183 | 0.0 | 8.0 | 0.00 | 0.00 | 0.00 | 55 | 1017.5 |
| 20260509180022 | 20 | 186 | 1.6 | 9.7 | 0.00 | 0.00 | 0.00 | 55 | 1017.4 |
| 20260509174520 | 20 | 205 | 1.6 | 12.9 | 0.00 | 0.00 | 0.00 | 54 | 1017.5 |
| 20260509173057 | 20 | 185 | 3.2 | 14.5 | 0.00 | 0.00 | 0.00 | 52 | 1017.7 |
| 20260509171515 | 21 | 167 | 4.8 | 17.7 | 0.00 | 0.00 | 0.00 | 51 | 1017.6 |
| 20260509170014 | 21 | 180 | 4.8 | 17.7 | 0.00 | 0.00 | 0.00 | 51 | 1017.5 |
| 20260509164529 | 21 | 182 | 9.7 | 17.7 | 0.00 | 0.00 | 0.00 | 50 | 1017.5 |
| 20260509163026 | 22 | 182 | 0.0 | 0.0 | 0.00 | 0.00 | 0.00 | 49 | 1017.4 |
| 20260509161545 | 22 | 215 | 0.0 | 0.0 | 0.00 | 0.00 | 0.00 | 46 | 1017.4 |
| 20260509160039 | 23 | 194 | 0.0 | 0.0 | 0.00 | 0.00 | 0.00 | 45 | 1017.5 |
| 20260509154521 | 23 | 211 | 0.0 | 0.0 | 0.00 | 0.00 | 0.00 | 43 | 1017.5 |
| 20260509153017 | 23 | 182 | 0.0 | 0.0 | 0.00 | 0.00 | 0.00 | 44 | 1017.5 |
| 20260509151510 | 23 | 111 | 0.0 | 0.0 | 0.00 | 0.00 | 0.00 | 44 | 1017.6 |
| 20260509150018 | 23 | 161 | 0.0 | 0.0 | 0.00 | 0.00 | 0.00 | 45 | 1017.8 |
| 20260509144537 | 23 | 235 | 0.0 | 0.0 | 0.00 | 0.00 | 0.00 | 43 | 1017.8 |
| 20260509143013 | 23 | 172 | 0.0 | 0.0 | 0.00 | 0.00 | 0.00 | 44 | 1018.0 |
| 20260509141513 | 23 | 187 | 0.0 | 0.0 | 0.00 | 0.00 | 0.00 | 45 | 1018.2 |
| 20260509140053 | 23 | 205 | 0.0 | 0.0 | 0.00 | 0.00 | 0.00 | 45 | 1018.5 |
| 20260509134512 | 22 | 227 | 0.0 | 0.0 | 0.00 | 0.00 | 0.00 | 46 | 1018.6 |
| 20260509133048 | 23 | 181 | 0.0 | 0.0 | 0.00 | 0.00 | 0.00 | 44 | 1018.6 |
| 20260509131526 | 23 | 162 | 0.0 | 0.0 | 0.00 | 0.00 | 0.00 | 45 | 1018.7 |
| 20260509130028 | 23 | 190 | 0.0 | 0.0 | 0.00 | 0.00 | 0.00 | 39 | 1018.7 |
| 20260509124527 | 22 | 88 | 0.0 | 0.0 | 0.00 | 0.00 | 0.00 | 38 | 1018.7 |
| 20260509123025 | 23 | 248 | 0.0 | 0.0 | 0.00 | 0.00 | 0.00 | 36 | 1018.6 |
| 20260509121545 | 23 | 113 | 0.0 | 0.0 | 0.00 | 0.00 | 0.00 | 37 | 1018.8 |
| 20260509120023 | 23 | 69 | 0.0 | 0.0 | 0.00 | 0.00 | 0.00 | 36 | 1018.9 |
| 20260509114522 | 23 | 116 | 0.0 | 0.0 | 0.00 | 0.00 | 0.00 | 36 | 1019.1 |
| 20260509113020 | 22 | 126 | 0.0 | 0.0 | 0.00 | 0.00 | 0.00 | 36 | 1019.1 |
| 20260509111516 | 22 | 178 | 0.0 | 0.0 | 0.00 | 0.00 | 0.00 | 38 | 1019.1 |
| 20260509110018 | 22 | 123 | 0.0 | 0.0 | 0.00 | 0.00 | 0.00 | 38 | 1019.3 |
| 20260509104513 | 21 | 111 | 0.0 | 0.0 | 0.00 | 0.00 | 0.00 | 39 | 1019.4 |
| 20260509103029 | 21 | 113 | 0.0 | 0.0 | 0.00 | 0.00 | 0.00 | 41 | 1019.6 |
| 20260509101530 | 21 | 182 | 0.0 | 0.0 | 0.00 | 0.00 | 0.00 | 41 | 1019.6 |
| 20260509100026 | 21 | 178 | 0.0 | 0.0 | 0.00 | 0.00 | 0.00 | 41 | 1019.6 |
| 20260509094545 | 21 | 153 | 0.0 | 0.0 | 0.00 | 0.00 | 0.00 | 43 | 1019.6 |
| 20260509093025 | 20 | 152 | 0.0 | 0.0 | 0.00 | 0.00 | 0.00 | 42 | 1019.7 |
| 20260509091524 | 19 | 155 | 0.0 | 0.0 | 0.00 | 0.00 | 0.00 | 45 | 1019.8 |
| 20260509090042 | 18 | 157 | 0.0 | 0.0 | 0.00 | 0.00 | 0.00 | 48 | 1019.9 |
| 20260509084523 | 18 | 158 | 0.0 | 0.0 | 0.00 | 0.00 | 0.00 | 50 | 1020.0 |
| 20260509083033 | 17 | 153 | 0.0 | 0.0 | 0.00 | 0.00 | 0.00 | 54 | 1020.0 |
| 20260509081529 | 17 | 145 | 0.0 | 0.0 | 0.00 | 0.00 | 0.00 | 54 | 1019.9 |
| 20260509080011 | 17 | 159 | 0.0 | 0.0 | 0.00 | 0.00 | 0.00 | 55 | 1020.0 |
| 20260509074549 | 16 | 157 | 0.0 | 0.0 | 0.00 | 0.00 | 0.00 | 57 | 1020.3 |
| 20260509073025 | 16 | 46 | 0.0 | 0.0 | 0.00 | 0.00 | 0.00 | 59 | 1020.2 |
| 20260509071527 | 16 | 44 | 0.0 | 0.0 | 0.00 | 0.00 | 0.00 | 60 | 1020.4 |
| 20260509070023 | 15 | 277 | 0.0 | 0.0 | 0.00 | 0.00 | 0.00 | 62 | 1020.5 |
| 20260509064524 | 14 | 279 | 0.0 | 0.0 | 0.00 | 0.00 | 0.00 | 65 | 1020.7 |
| 20260509063036 | 13 | 288 | 0.0 | 0.0 | 0.00 | 0.00 | 0.00 | 68 | 1020.6 |
| 20260509061526 | 12 | 283 | 0.0 | 0.0 | 0.00 | 0.00 | 0.00 | 69 | 1020.9 |
| 20260509060105 | 12 | 291 | 0.0 | 0.0 | 0.00 | 0.00 | 0.00 | 71 | 1020.9 |
| 20260509054521 | 11 | 283 | 0.0 | 0.0 | 0.00 | 0.00 | 0.00 | 75 | 1020.7 |
| 20260509053018 | 10 | 285 | 0.0 | 0.0 | 0.00 | 0.00 | 0.00 | 79 | 1020.7 |
| 20260509051521 | 9 | 288 | 0.0 | 0.0 | 0.00 | 0.00 | 0.00 | 80 | 1020.7 |
| 20260509050020 | 8 | 336 | 0.0 | 0.0 | 0.00 | 0.00 | 0.00 | 80 | 1020.5 |
| 20260509044518 | 7 | 339 | 0.0 | 0.0 | 0.00 | 0.00 | 0.00 | 80 | 1020.3 |
| 20260509043020 | 7 | 333 | 0.0 | 0.0 | 0.00 | 0.00 | 0.00 | 80 | 1020.1 |
| 20260509041518 | 7 | 340 | 0.0 | 0.0 | 0.00 | 0.00 | 0.00 | 80 | 1019.8 |
| 20260509040020 | 7 | 340 | 0.0 | 4.8 | 0.00 | 0.00 | 0.00 | 79 | 1019.7 |
| 20260509034518 | 7 | 340 | 0.0 | 1.6 | 0.00 | 0.00 | 0.00 | 79 | 1019.6 |
| 20260509033015 | 7 | 340 | 0.0 | 3.2 | 0.00 | 0.00 | 0.00 | 78 | 1019.5 |
| 20260509031513 | 7 | 334 | 0.0 | 0.0 | 0.00 | 0.00 | 0.00 | 78 | 1019.6 |
| 20260509030013 | 7 | 186 | 0.0 | 1.6 | 0.00 | 0.00 | 0.00 | 78 | 1019.5 |
| 20260509024512 | 8 | 186 | 6.4 | 11.3 | 0.00 | 0.00 | 0.00 | 79 | 1019.6 |
| 20260509023011 | 8 | 214 | 1.6 | 6.4 | 0.00 | 0.00 | 0.00 | 78 | 1019.6 |
| 20260509021529 | 8 | 217 | 6.4 | 11.3 | 0.00 | 0.00 | 0.00 | 77 | 1019.5 |
| 20260509020028 | 8 | 218 | 0.0 | 0.0 | 0.00 | 0.00 | 0.00 | 75 | 1019.6 |
| 20260509014525 | 8 | 227 | 0.0 | 0.0 | 0.00 | 0.00 | 0.00 | 75 | 1019.4 |
| 20260509013035 | 8 | 244 | 0.0 | 0.0 | 0.00 | 0.00 | 0.00 | 75 | 1019.4 |
| 20260509011519 | 8 | 257 | 0.0 | 0.0 | 0.00 | 0.00 | 0.00 | 75 | 1019.3 |
| 20260509010019 | 9 | 221 | 0.0 | 0.0 | 0.00 | 0.00 | 0.00 | 74 | 1019.1 |
| 20260509004530 | 9 | 186 | 0.0 | 0.0 | 0.00 | 0.00 | 0.00 | 74 | 1019.1 |
| 20260509003013 | 9 | 184 | 0.0 | 0.0 | 0.00 | 0.00 | 0.00 | 74 | 1019.1 |
| 20260509001528 | 10 | 185 | 0.0 | 0.0 | 0.00 | 0.00 | 0.00 | 73 | 1019.0 |
| 20260509000045 | 10 | 188 | 3.2 | 8.0 | 0.00 | 0.00 | 0.00 | 73 | 1019.0 |
| 20260508234525 | 10 | 196 | 3.2 | 4.8 | 0.00 | 0.00 | 0.00 | 74 | 1018.9 |
| 20260508233023 | 10 | 192 | 4.8 | 8.0 | 0.00 | 0.00 | 0.00 | 75 | 1018.9 |
| 20260508231526 | 10 | 193 | 4.8 | 11.3 | 0.00 | 0.00 | 0.00 | 74 | 1018.9 |
| 20260508230025 | 11 | 206 | 6.4 | 9.7 | 0.00 | 0.00 | 0.00 | 72 | 1019.0 |
| 20260508224541 | 11 | 205 | 6.4 | 9.7 | 0.00 | 0.00 | 0.00 | 70 | 1018.9 |
| 20260508223021 | 11 | 79 | 1.6 | 6.4 | 0.00 | 0.00 | 0.00 | 68 | 1018.8 |
| 20260508221520 | 12 | 80 | 0.0 | 0.0 | 0.00 | 0.00 | 0.00 | 67 | 1018.8 |
| 20260508220030 | 12 | 82 | 0.0 | 1.6 | 0.00 | 0.00 | 0.00 | 68 | 1018.7 |
| 20260508214524 | 13 | 82 | 0.0 | 1.6 | 0.00 | 0.00 | 0.00 | 68 | 1018.7 |
| 20260508213102 | 13 | 86 | 0.0 | 0.0 | 0.00 | 0.00 | 0.00 | 68 | 1018.9 |
| 20260508211532 | 13 | 89 | 0.0 | 4.8 | 0.00 | 0.00 | 0.00 | 67 | 1018.9 |
| 20260508210030 | 13 | 90 | 1.6 | 4.8 | 0.00 | 0.00 | 0.00 | 66 | 1018.9 |
| 20260508204519 | 13 | 97 | 0.0 | 3.2 | 0.00 | 0.00 | 0.00 | 64 | 1018.8 |
| 20260508203036 | 14 | 98 | 1.6 | 4.8 | 0.00 | 0.00 | 0.00 | 64 | 1018.8 |
| 20260508201516 | 14 | 101 | 0.0 | 3.2 | 0.00 | 0.00 | 0.00 | 64 | 1018.9 |
| 20260508200027 | 14 | 101 | 1.6 | 6.4 | 0.00 | 0.00 | 0.00 | 62 | 1018.8 |
| 20260508194524 | 14 | 103 | 0.0 | 6.4 | 0.00 | 0.00 | 0.00 | 62 | 1018.6 |
| 20260508193125 | 15 | 111 | 3.2 | 12.9 | 0.00 | 0.00 | 0.00 | 61 | 1018.4 |
| 20260508191539 | 15 | 111 | 1.6 | 6.4 | 0.00 | 0.00 | 0.00 | 60 | 1018.3 |
| 20260508190016 | 15 | 109 | 0.0 | 0.0 | 0.00 | 0.00 | 0.00 | 61 | 1017.9 |